Location: Tel Aviv
(32.0670°N, 34.7670°E)
Time: 12:41:24
(UTC+03:00)

Transit 2A - Pass Details

Date: 31 January 2022
Orbit: 598 x 960 km, 66.7° (Epoch: 20 May)

Event Time Altitude Azimuth Distance (km) Brightness Sun altitude
Rises 08:03:05 0° 171° (S) 3,423 10.0 15.8°
Reaches altitude 10° 08:05:54 10° 158° (SSE) 2,543 9.8 16.3°
Maximum altitude 08:10:40 25° 105° (ESE) 1,759 9.6 17.1°
Drops below altitude 10° 08:15:40 10° 52° (NE) 2,677 9.1 18.0°
Sets 08:18:41 0° 40° (NE) 3,641 9.6 18.5°
